Find Starlink 36712

NORAD ID: 67700 Int'l Des: 2026-025 Owner: SPXS Country: US Constellation: starlink operational
LEOCIRCULARRETROGRADE

Aktuelle Ansicht

3D-Globus wird geladen...

Über Starlink 36712

Beschreibung wird geladen...

Nächste Überflüge

Passes for default location (London). Set your location on the main map for personalized predictions.

Höhenverlauf

Loading altitude history...

Zweizeiliger Elementsatz

1 67700U 26025H 26146.28985439 .00017382 00000-0 54000-3 0 9995
2 67700 97.2838 257.8663 0000967 87.6048 272.5305 15.33415220 17908
Epoch: 26. Mai 2026 • Age: 16 hours

Aktueller Status

Höhe 469.7 km
Geschwindigkeit 7.63 km/s
Subsatellitenpunkt 33.31°N, 150.02°W
Startdatum 7. Feb. 2026
Alter 0.2 years
Typ internet

Technische Details

Klassifizierung Payload
Masse 575.00 kg
Trockenmasse 530.00 kg
Gesamtmasse 575.00 kg
Länge 0.30 m
Durchmesser 4.10 m
Spannweite 29.00 m
Form Box + pan
Hersteller SPXS
Bus-Typ Starlink V2MO
Phasenstatus In Orbit
Besitzer/Staat SPXS/US

Most Searched